Flag for Thailand Weather past 2 weeks in Phuket, Thailand

Now
77 °F

Passing clouds.


Feels Like: 78 °F
Forecast: 78 / 86 °F
Wind: 1 mph from North

Location: Phuket Airport

Current Time: Jul 30, 2015 at 3:29:09 AM

Latest Report: Jul 30, 2015 at 3:00 AM


Visibility: 5 mi

Pressure: 29.86 "Hg

Humidity: 89%

Dew point: 73 °F

Location of PhuketLocation

Historic Weather in Phuket — Graph

°F

Phuket temperature yesterday

Maximum temperature yesterday: 90 °F (at 11:30 AM)
Minimum temperature yesterday: 77 °F (at 12:30 AM)
Average temperature yesterday: 81 °F

Past Weeks' High & Low Weather Summary

 TemperatureHumidityPressure
High91 °F (Jul 18, 12:00 PM)100% (Jul 15, 11:30 PM)29.95 "Hg (Jul 15, 11:30 PM)
Low73 °F (Jul 20, 11:30 PM)44% (Jul 22, 2:30 PM)29.71 "Hg (Jul 16, 5:00 PM)
Average82 °F78%29.85 "Hg
* Reported Jul 15 2:00 AM — Jul 30 2:30 AM, Phuket, Weather by CustomWeather, © 2015

Note: Actual official high and low records may vary slightly from our data, if they occured in-between our weather recording intervals... More about our weather records

Advertising

Phuket weather history for previous 24 hours

 ConditionsComfort  
Time TempWeatherWind HumidityBarometerVisibility
2:30 AM
Thu, Jul 30
77 °FPassing clouds.2 mph89%29.89 "Hg5 mi
2:00 AM77 °FPassing clouds.2 mph89%29.89 "Hg5 mi
1:30 AM77 °FPassing clouds.1 mph89%29.89 "Hg5 mi
1:00 AM77 °FPassing clouds.1 mph89%29.89 "Hg5 mi
12:30 AM77 °FPassing clouds.2 mph89%29.89 "Hg5 mi
12:00 AM77 °FPassing clouds.2 mph89%29.89 "Hg5 mi
11:30 PM
Wed, Jul 29
77 °FPassing clouds.2 mph89%29.92 "Hg5 mi
11:00 PM77 °FPassing clouds.2 mph89%29.92 "Hg5 mi
10:30 PM77 °FPassing clouds.1 mph89%29.92 "Hg5 mi
10:00 PM79 °FPassing clouds.2 mph89%29.92 "Hg5 mi
9:30 PM79 °FPassing clouds.1 mph89%29.92 "Hg5 mi
9:00 PM79 °FPassing clouds.1 mph89%29.92 "Hg5 mi
8:30 PM79 °FPassing clouds.No wind89%29.89 "Hg5 mi
8:00 PM81 °FPassing clouds.No wind84%29.86 "Hg4 mi
7:30 PM81 °FPassing clouds.6 mph84%29.86 "Hg4 mi
7:00 PM82 °FPassing clouds.No wind79%29.83 "Hg4 mi
6:30 PM82 °FPartly sunny.3 mph79%29.83 "Hg4 mi
6:00 PM84 °FPartly sunny.No wind79%29.80 "Hg4 mi
5:30 PM82 °FBroken clouds.3 mph79%29.80 "Hg4 mi
5:00 PM86 °FBroken clouds.7 mph75%29.80 "Hg4 mi
4:30 PM86 °FBroken clouds.7 mph75%29.80 "Hg4 mi
4:00 PM82 °FBroken clouds.1 mph84%29.80 "Hg4 mi
3:30 PM81 °FBroken clouds.3 mph79%29.83 "Hg4 mi
3:00 PM79 °FLight rain. Broken clouds.6 mph79%29.83 "Hg4 mi
2:30 PM79 °FThunderstorms. Broken clouds.6 mph79%29.86 "Hg2 mi
2:00 PM82 °FPartly sunny.6 mph74%29.83 "Hg5 mi
1:30 PM84 °FRain. Broken clouds.8 mph74%29.86 "Hg2 mi
1:00 PM90 °FPartly sunny.8 mph59%29.86 "Hg5 mi
12:30 PM88 °FPartly sunny.12 mph66%29.86 "Hg5 mi
12:00 PM88 °FScattered clouds.10 mph62%29.89 "HgN/A
11:30 AM90 °FScattered clouds.9 mph63%29.89 "HgN/A
11:00 AM88 °FScattered clouds.9 mph66%29.89 "HgN/A
10:30 AM88 °FPartly sunny.9 mph66%29.92 "HgN/A
10:00 AM88 °FPartly sunny.No wind62%29.92 "HgN/A
9:30 AM86 °FPartly sunny.3 mph62%29.92 "Hg5 mi
9:00 AM86 °FPartly sunny.No wind70%29.92 "Hg5 mi
8:30 AM84 °FPartly sunny.No wind74%29.92 "Hg5 mi
7:30 AM79 °FBroken clouds.No wind94%29.89 "Hg5 mi
7:00 AM77 °FBroken clouds.No wind94%29.89 "Hg5 mi
6:30 AM77 °FBroken clouds.No wind89%29.86 "Hg5 mi
6:00 AM77 °FPassing clouds.No wind89%29.86 "Hg5 mi
4:00 AM77 °FPassing clouds.No wind89%29.83 "Hg5 mi
3:30 AM77 °FPassing clouds.No wind89%29.83 "Hg5 mi
3:00 AM77 °FPassing clouds.No wind94%29.86 "Hg5 mi
Weather by CustomWeather, © 2015

See weather overviewHow to use our weather pages